Regional Weather Roundup
Issued by NWS Little Rock, AR

Home | Current Version | Previous Version | Text Only | Print | Product List | Glossary Off
Versions: 1 2 3 4 5 6 7 8 9 10 11 12 13 14 15 16 17 18 19 20 21 22 23 24 25 26 27 28 29 30 31 32 33 34 35 36 37 38 39 40 41 42 43 44 45 46 47 48 49 50

000
ASUS44 KLZK 271005
RWRLZK

WEATHER ROUNDUP FOR ARKANSAS
NATIONAL WEATHER SERVICE LITTLE ROCK AR
500 AM CDT FRI MAY 27 2016

NOTE: "FAIR" INDICATES FEW OR NO CLOUDS BELOW 12,000 FEET WITH NO
SIGNIFICANT WEATHER AND/OR OBSTRUCTIONS TO VISIBILITY.

ARZ001-003-010-029-271100-
NORTHWEST ARKANSAS

CITY           SKY/WX    TMP DP  RH WIND       PRES   REMARKS
FAYETTEVILLE   MOCLDY    68  66  93 SE8       29.74F
FORT SMITH     PTCLDY    70  66  87 E8        29.72F
HARRISON       MOCLDY    69  65  86 S7        29.81F
BENTONVILLE    PTCLDY    68  63  83 SE10      29.73F
ROGERS           N/A     66  65  96 SE13      29.73F
SILOAM SPGS    CLOUDY    66  59  77 SE13      29.71F
HIGHFILL       CLOUDY    67  66  97 SE9       29.72F
$$

ARZ004-005-016-271100-
NORTH CENTRAL ARKANSAS

CITY           SKY/WX    TMP DP  RH WIND       PRES   REMARKS
BATESVILLE     CLOUDY    72  68  88 E8        29.85F
FLIPPIN        CLOUDY   N/A N/A N/A E6        29.78F
MTN HOME       CLOUDY    67  67 100 SE6       29.81F
$$

ARZ040-041-271100-
WEST CENTRAL ARKANSAS

CITY           SKY/WX    TMP DP  RH WIND       PRES   REMARKS
MENA           CLOUDY    73  70  88 SE7       29.77F
MOUNT IDA      CLOUDY    73  66  78 VRB5      29.76F
$$

ARZ009-017-025-026-028-271100-
NORTHEAST ARKANSAS

CITY           SKY/WX    TMP DP  RH WIND       PRES   REMARKS
CORNING        TSTM      68  68 100 SE8       29.89S
JONESBORO      CLOUDY    70  67  90 S9        29.88R
NEWPORT        LGT RAIN  71  71 100 S6        29.87S
WALNUT RIDGE   CLOUDY    70  64  83 SE6       29.87F
BLYTHEVILLE    CLOUDY    71  67  87 S13       29.91R
$$

ARZ022-023-033-042-044-271100-
CENTRAL ARKANSAS

CITY           SKY/WX    TMP DP  RH WIND       PRES   REMARKS
LITTLE ROCK    CLOUDY    72  69  90 SE7       29.83F
N LITTLE ROCK    N/A     70  69  96 S3        29.81F
JACKSONVILLE   CLOUDY    71  71 100 SE2       29.83F
SEARCY         CLOUDY    71  71 100 S3        29.86F
HOT SPRINGS    CLOUDY    72  70  93 SE7       29.80F
RUSSELLVILLE   CLOUDY    70  68  93 VRB3      29.79F
CLINTON        CLOUDY    72  70  94 CALM      29.84S
$$

ARZ036-271100-
EAST ARKANSAS

CITY           SKY/WX    TMP DP  RH WIND       PRES   REMARKS
WEST MEMPHIS   CLOUDY    73  69  87 S10       29.89R
$$

ARZ050-053-066-070-073-271100-
SOUTHWEST ARKANSAS

CITY           SKY/WX    TMP DP  RH WIND       PRES   REMARKS
ARKADELPHIA    CLOUDY    71  71 100 VRB5      29.81F FOG
CAMDEN         CLOUDY    72  68  88 SE6       29.83F
TEXARKANA      CLOUDY    70  67  90 S14       29.78F
EL DORADO      CLOUDY    71  71 100 SE3       29.85F
DE QUEEN       CLOUDY    71  68  90 VRB7      29.74F
$$

ARZ056-057-069-271100-
SOUTHEAST ARKANSAS

CITY           SKY/WX    TMP DP  RH WIND       PRES   REMARKS
PINE BLUFF     CLOUDY    73  70  90 SE9       29.85F
STUTTGART      CLOUDY    75  66  73 SE12      29.86F
MONTICELLO     LGT RAIN  75  71  87 S6        29.88R

$$





USA.gov is the U.S. government's official web portal to all federal, state and local government web resources and services.